GW3532 Weather Reports


time (UTC)temp
C
wind
direction
speed
KPH
gust
KPH
rain 1hr
cm
rain 24hr
cm
rain mn
cm
humidity
%
barometer
mb
20260504000011 16 261 0.0 4.8 0.00 0.00 0.00 49 1016.7
20260503234520 17 262 0.0 4.8 0.00 0.00 0.00 44 1016.8
20260503233021 18 136 0.0 6.4 0.00 0.00 0.00 44 1016.8
20260503231504 18 238 1.6 6.4 0.00 0.00 0.00 41 1017.0
20260503230012 18 204 1.6 11.3 0.00 0.00 0.00 41 1017.2
20260503224517 19 271 0.0 14.5 0.00 0.00 0.00 41 1017.2
20260503223020 18 226 3.2 9.7 0.00 0.00 0.00 40 1017.4
20260503221525 18 219 6.4 17.7 0.00 0.00 0.00 38 1017.5
20260503220007 18 250 3.2 14.5 0.00 0.00 0.00 37 1017.7
20260503214532 18 205 4.8 14.5 0.00 0.00 0.00 35 1017.7
20260503213016 19 271 3.2 12.9 0.00 0.00 0.00 35 1017.8
20260503211520 18 225 1.6 11.3 0.00 0.00 0.00 35 1018.1
20260503210023 18 262 4.8 11.3 0.00 0.00 0.00 36 1018.1
20260503204507 18 225 4.8 12.9 0.00 0.00 0.00 36 1018.4
20260503203012 18 230 4.8 14.5 0.00 0.00 0.00 38 1018.7
20260503201518 18 276 4.8 17.7 0.00 0.00 0.00 38 1018.9
20260503200032 18 240 3.2 11.3 0.00 0.00 0.00 36 1019.2
20260503194527 18 178 4.8 14.5 0.00 0.00 0.00 35 1019.5
20260503193013 18 223 1.6 12.9 0.00 0.00 0.00 34 1019.6
20260503191519 18 187 4.8 17.7 0.00 0.00 0.00 41 1019.7
20260503190021 18 228 3.2 14.5 0.00 0.00 0.00 40 1019.9
20260503184533 18 96 1.6 11.3 0.00 0.00 0.00 37 1020.1
20260503183028 18 238 4.8 12.9 0.00 0.00 0.00 37 1020.2